SCP
0 0 0 0 0 0 0 0 0 0 0 0 0 0 0 0 0 0 0 1 1 1 1 1 1 1 1 1 1 1 1 1 1 1 0 0 0 0 0 0 0 0 0
0 0 0 0 0 0 0 0 0 0 0 0 0 0 0 0 0 0 0 0 0 1 1 1 1 1 0 0 0 1 1 0 1 1 0 0 0 0 0 0 0 0 0
0 0 0 0 0 0 0 0 0 0 0 0 0 0 0 0 0 0 0 0 0 0 0 1 1 0 0 0 0 1 1 1 0 1 0 0 0 0 0 0 0 0 0
0 0 0 0 0 0 0 0 0 0 0 0 0 0 0 0 0 0 0 0 0 0 0 0 0 0 0 0 0 1 1 1 1 0 0 0 0 0 0 0 0 0 0
0 0 0 0 0 0 0 0 0 0 0 0 0 0 0 0 0 0 0 0 0 0 0 0 0 0 0 0 0 0 1 1 1 0 0 0 0 0 0 0 0 0 0
0 0 0 0 0 0 0 0 0 0 0 0 0 0 0 0 0 0 0 0 0 0 0 0 0 0 0 0 0 0 0 0 0 0 0 0 0 0 0 0 0 0 0
0 0 0 0 0 0 0 0 0 0 0 0 0 0 0 0 0 0 0 0 0 0 0 0 0 0 0 0 0 0 0 0 0 0 0 0 0 0 0 0 0 0 0
0 0 0 0 0 0 0 0 0 0 0 0 0 0 0 0 0 0 0 0 0 0 0 0 0 0 0 0 0 0 0 0 0 0 0 0 0 0 0 0 0 0 0
0 0 0 0 0 0 0 0 0 0 0 0 0 0 0 0 0 0 0 0 0 0 0 0 0 0 0 0 0 0 0 0 0 0 0 0 0 0 0 0 0 0 0
0 0 0 0 0 0 0 0 0 0 0 0 0 0 0 0 0 0 0 0 0 0 0 0 0 0 0 0 0 0 0 0 0 0 0 0 0 0 0 0 0 0 0
0 0 0 0 0 0 0 0 0 0 0 0 0 0 0 0 0 0 0 0 0 0 0 0 0 0 0 0 0 0 0 0 0 0 0 0 0 0 0 0 0 0 0
0 0 0 0 0 0 0 0 0 0 0 0 0 0 0 0 0 0 0 0 0 0 0 0 0 0 0 0 0 0 0 0 0 0 0 0 0 0 0 0 0 0 0
0 0 0 0 0 0 0 0 0 0 0 0 0 0 0 0 0 0 0 0 0 0 0 0 0 0 0 0 0 0 0 0 0 0 0 0 0 0 0 0 0 0 0
0 0 0 0 0 0 0 0 0 0 0 0 0 0 0 0 0 0 0 0 0 0 0 0 0 0 0 0 0 0 0 0 0 0 0 0 0 0 0 0 0 0 0
0 0 0 0 0 0 0 0 0 0 0 0 0 0 0 0 0 0 0 0 0 0 0 0 0 0 0 0 0 0 0 0 0 0 0 0 0 0 0 0 0 0 0
0 0 0 0 0 0 0 0 0 0 0 0 0 0 0 0 0 0 0 0 0 0 0 0 0 0 0 0 0 0 0 0 0 0 0 0 0 0 0 0 0 0 0
0 0 0 0 0 0 0 0 0 0 0 0 0 0 0 0 0 0 0 0 0 0 0 0 0 0 0 0 0 0 0 0 0 0 0 0 0 0 0 0 0 0 0
0 0 0 0 0 0 0 0 0 0 0 0 0 0 0 0 0 0 0 0 0 0 0 0 0 0 0 0 0 0 0 0 0 0 0 0 0 0 0 0 0 0 0
0 0 0 0 0 0 0 0 0 0 0 0 0 0 0 0 0 0 0 0 0 0 0 0 0 0 0 0 0 0 0 0 0 0 0 0 0 0 0 0 0 0 0
0 0 0 0 0 0 0 0 0 0 0 0 0 0 0 0 0 0 0 0 0 0 0 0 0 0 0 0 0 0 0 0 0 0 0 0 0 0 0 0 0 0 0
0 0 0 0 0 0 0 0 0 0 0 0 0 0 0 0 0 0 0 0 0 0 0 0 0 0 0 0 0 0 0 0 0 0 0 0 0 0 0 -0 -0 -0 -0
0 0 0 0 0 0 0 0 0 0 0 0 0 0 0 0 0 0 0 0 0 0 0 0 0 0 0 0 0 0 0 0 0 0 0 0 0 0 0 -0 -0 -0 -0
0 0 0 0 0 0 0 0 0 0 0 0 0 0 0 0 0 0 0 0 0 0 0 0 0 0 0 0 0 0 0 0 0 0 0 0 0 0 0 0 0 0 0
0 0 0 0 0 0 0 0 0 0 0 0 0 0 0 0 0 0 0 0 0 0 0 0 0 0 0 0 0 0 0 0 0 0 0 0 0 0 0 0 0 0 0
0 0 0 0 0 0 0 0 0 0 0 0 0 0 0 0 0 0 0 0 0 0 0 0 0 0 0 0 0 0 0 0 0 0 0 0 0 0 0 0 0 0 0
0 0 0 0 0 0 0 0 0 0 0 0 0 0 0 0 0 0 0 0 0 0 0 0 0 0 0 0 0 0 0 0 0 0 0 0 0 0 0 0 0 0 0
Wind_Speed
11 10 10 9 9 9 9 9 8 8 7 7 6 6 6 5 5 3 3 2 1 0 1 3 4 4 4 5 5 5 4 3 3 2 2 3 4 4 4 4 4 6 7
9 9 9 9 9 9 9 9 9 8 8 8 7 7 6 5 5 4 4 3 3 3 2 2 3 3 4 4 4 5 4 4 3 3 4 4 4 3 3 4 3 3 3
9 9 10 10 10 10 10 9 9 9 9 9 8 8 8 7 5 3 2 2 2 2 3 3 3 3 4 4 4 4 3 3 3 3 3 3 3 3 4 4 4 3 4
9 9 10 9 9 10 10 10 10 10 10 10 10 9 9 9 8 6 3 1 1 1 2 3 3 4 4 4 4 4 4 4 3 3 3 4 4 3 4 5 5 4 4
8 9 9 8 8 8 9 9 9 10 10 10 10 10 11 10 11 11 6 3 2 1 1 2 3 3 5 4 3 4 4 4 4 4 4 4 4 4 4 4 5 6 5
8 8 8 7 7 8 8 9 10 10 10 10 10 10 11 10 14 14 11 6 5 3 2 2 3 3 4 4 4 3 2 3 4 4 4 4 4 4 4 4 6 6 4
7 8 7 7 7 7 7 8 9 9 10 10 10 9 10 12 15 14 12 7 6 5 4 3 3 4 4 4 5 6 5 5 2 1 4 4 4 4 5 6 5 5 6
7 7 7 6 6 6 7 7 8 8 8 8 9 9 8 11 15 14 11 5 5 5 5 4 4 5 4 4 4 4 5 6 4 3 5 5 5 4 5 6 9 10 8
6 6 6 6 6 6 7 7 7 7 7 7 7 8 8 9 14 14 12 4 4 5 5 5 3 5 6 5 5 5 6 7 9 13 13 11 10 8 4 6 7 8 6
5 5 5 6 6 6 6 6 6 6 6 6 6 7 8 9 13 14 13 4 4 4 4 5 7 5 5 3 5 5 6 6 6 7 8 7 8 8 3 3 4 6 7
4 4 4 5 5 5 5 5 5 5 6 6 6 6 7 8 10 13 13 6 4 3 3 3 5 6 5 3 1 4 5 6 6 6 6 6 6 6 6 6 5 3 5
3 3 4 4 4 4 5 5 5 5 5 6 6 7 6 7 8 10 11 9 7 3 3 3 5 6 5 3 3 7 6 5 5 5 6 6 6 7 7 8 10 10 9
4 4 3 4 4 4 4 5 4 5 5 5 5 6 6 6 7 9 7 7 7 4 5 7 7 4 5 6 8 7 6 5 5 6 6 6 6 7 7 7 9 10 11
3 3 3 2 3 3 3 3 4 5 5 5 6 6 6 6 8 8 6 3 2 3 5 6 6 6 5 6 6 5 4 4 5 6 6 6 5 5 5 5 6 6 7
3 3 2 2 2 2 3 3 3 4 5 6 7 6 7 7 9 11 8 6 5 3 2 4 4 4 5 5 5 4 4 5 6 6 6 6 5 5 4 4 3 4 5
3 3 2 2 1 1 1 2 2 1 2 3 5 7 5 7 9 9 10 10 8 4 2 5 5 5 5 5 5 5 5 5 5 5 5 5 5 4 4 4 3 4 5
3 3 2 2 1 0 1 2 2 3 4 3 4 6 7 9 9 9 8 7 9 6 5 5 5 5 4 4 4 5 5 5 5 5 5 5 4 4 4 4 4 4 4
4 3 3 3 2 1 0 1 2 2 2 2 4 4 4 6 8 9 8 2 6 6 5 5 5 4 4 4 4 5 5 5 5 5 5 4 4 4 4 4 3 4 4
4 4 4 3 3 2 1 1 0 1 1 1 1 4 3 2 2 4 5 4 5 5 5 5 4 4 4 4 4 4 5 5 5 5 5 4 3 3 3 3 4 3 2
4 3 4 4 4 3 3 2 2 1 1 1 1 2 2 1 2 3 4 4 4 4 4 4 4 4 4 4 4 4 5 5 5 4 4 3 3 3 3 3 3 4 3
4 5 7 6 5 4 3 3 3 2 1 1 1 2 2 2 2 3 2 2 2 2 3 3 3 3 3 2 3 3 4 4 3 3 3 3 3 2 2 3 3 3 4
4 4 5 5 4 4 4 4 4 3 3 2 2 3 4 3 0 1 1 2 2 2 1 1 1 2 1 1 1 2 3 3 3 3 3 3 3 3 3 3 3 4 4
5 5 5 5 5 5 5 5 5 5 4 4 3 3 4 3 2 2 2 2 3 3 3 2 2 2 1 1 1 1 2 3 2 2 3 3 3 3 3 4 4 4 5
6 5 5 5 5 5 6 6 5 5 5 5 4 4 4 4 4 4 4 3 4 4 4 4 3 3 4 3 3 3 2 1 2 3 4 3 4 3 4 4 4 5 4
6 6 6 5 5 6 6 6 6 6 6 6 6 5 5 5 5 5 5 5 6 5 6 5 4 4 5 6 5 4 4 2 1 2 4 4 5 5 5 5 4 5 5
7 7 6 5 5 6 6 6 6 6 6 6 6 6 6 6 6 6 6 6 6 6 7 6 7 7 6 6 6 6 6 5 4 4 5 5 6 5 6 5 6 6 6
Wind_Direction
16 18 23 23 23 26 27 28 27 29 33 38 37 43 49 47 46 52 53 49 66 86 214 201 196 189 184 178 175 174 179 174 184 171 191 189 199 206 179 202 200 201 180
16 20 27 29 29 32 32 29 32 34 34 36 36 37 39 36 35 38 44 48 59 70 82 125 157 168 168 166 167 167 168 173 184 186 188 195 202 186 187 185 185 190 168
15 21 29 30 31 33 35 33 34 35 32 36 39 37 34 28 24 27 30 38 63 88 106 114 126 132 136 139 148 154 156 169 184 191 175 168 186 177 177 168 161 150 138
18 22 26 30 33 36 39 36 38 39 36 33 36 37 35 29 18 9 12 20 32 76 119 125 132 137 137 134 139 149 156 163 169 177 170 172 171 174 185 169 151 134 124
22 25 24 28 37 38 41 39 39 40 40 34 33 36 36 32 20 5 360 18 14 26 95 119 122 120 139 145 149 158 163 161 166 175 170 167 165 170 168 161 140 126 104
26 28 27 28 36 36 36 35 34 35 34 32 29 30 34 32 20 17 2 20 22 28 52 91 113 125 131 132 135 135 133 158 169 171 165 160 147 143 141 152 148 148 117
28 30 30 30 33 30 32 32 29 29 30 27 24 23 27 27 18 18 9 14 30 31 31 62 98 98 107 115 121 125 101 66 21 147 132 124 130 138 149 150 146 121 101
34 34 32 31 33 29 28 29 26 26 28 25 21 16 18 23 15 12 352 22 41 41 42 58 98 110 108 108 114 101 93 80 53 75 90 88 90 111 122 119 112 108 99
40 36 32 33 33 29 27 24 22 19 21 25 26 18 15 18 14 8 349 24 46 51 47 53 69 107 103 107 115 112 100 85 67 65 65 73 66 52 64 127 133 129 117
49 43 39 36 36 33 29 21 22 21 21 23 29 21 18 16 13 9 355 8 35 55 59 72 65 68 96 113 146 142 129 119 116 110 102 109 100 87 38 119 134 136 131
71 59 51 47 46 36 28 26 22 27 24 24 28 30 26 20 14 14 6 5 16 40 65 69 71 67 83 83 145 139 135 134 126 114 101 91 83 79 72 66 65 90 115
107 87 71 55 47 47 42 33 30 25 29 26 21 26 21 22 17 12 14 16 358 41 57 67 74 73 87 86 109 112 123 134 130 119 102 91 87 80 75 75 76 71 70
139 118 100 85 64 44 39 38 35 29 25 24 18 16 14 14 14 8 16 25 16 41 66 64 69 77 122 107 106 128 150 144 131 118 104 95 94 98 97 93 89 84 76
151 136 131 100 82 68 40 32 30 21 18 17 16 12 8 15 14 0 358 26 80 92 98 101 94 72 89 100 125 140 138 121 123 116 112 114 115 113 109 109 109 107 93
164 159 143 111 78 51 60 36 16 40 20 356 3 5 7 7 7 356 358 8 19 49 91 115 116 115 106 103 99 96 108 119 115 120 126 132 130 121 110 101 102 109 110
179 170 166 151 128 46 49 109 141 336 38 23 15 360 31 24 1 9 18 23 28 21 77 90 89 90 92 94 96 98 98 104 112 122 128 132 132 127 118 111 110 112 116
196 176 178 185 169 161 36 22 78 147 169 125 64 35 27 18 17 17 13 26 35 39 73 77 79 81 85 89 94 99 100 104 113 120 123 124 124 123 120 118 118 121 125
203 178 199 193 202 211 85 31 23 25 74 113 124 91 48 32 25 15 351 0 68 59 62 68 72 76 82 91 97 105 111 115 116 115 114 115 119 122 124 128 128 132 137
209 197 201 203 204 216 216 227 308 25 34 40 47 115 126 171 133 26 1 50 64 65 69 70 74 85 92 97 101 108 112 113 115 115 113 116 122 129 132 133 120 111 169
213 205 231 220 212 213 218 226 229 251 320 4 22 33 52 40 59 61 55 53 63 68 68 74 73 77 88 97 107 117 120 120 124 123 122 124 123 129 140 149 152 162 162
218 192 201 230 228 225 230 233 232 240 265 296 19 68 351 350 50 67 70 74 71 73 72 70 77 79 82 96 116 131 135 133 134 135 136 136 136 138 146 151 155 156 148
232 222 215 223 224 226 232 232 233 236 241 249 232 168 192 249 258 131 133 139 141 134 113 110 99 81 65 81 166 176 169 163 158 159 155 153 155 160 166 169 170 166 164
238 236 232 231 230 216 228 233 228 231 235 237 233 219 205 224 222 213 193 178 177 179 175 187 182 173 183 199 224 243 214 183 175 179 182 178 183 183 186 180 180 185 182
232 238 243 241 235 233 230 230 228 228 232 235 232 228 224 219 219 212 206 192 192 195 195 200 206 200 200 206 206 210 204 157 190 191 203 202 198 197 193 189 196 196 188
231 235 242 246 244 239 238 236 235 232 229 231 233 229 225 220 216 208 204 198 199 203 203 206 206 208 208 206 208 198 133 100 281 257 198 204 202 201 203 201 202 198 197
227 233 239 243 244 243 242 241 239 238 236 234 233 231 227 222 217 210 204 200 200 201 202 206 211 210 208 213 207 177 162 190 210 246 244 212 204 204 204 207 204 206 203